Theta_e
310 312 319 323 316 311 314 316 317 317 319 327 350 359 362 360 360 362 355 357 357 350 344 342 343 341 339 336 328 322 321 322 325 328 330 328 327 328 330 333 335 337 338 335 327 330 324 321 326
310 316 321 316 315 314 313 314 319 317 319 323 344 346 346 360 353 354 358 358 352 350 345 341 343 342 340 339 333 325 321 323 326 326 329 329 331 333 334 338 337 336 335 329 329 326 321 321 321
314 320 315 313 312 315 314 316 317 317 317 320 321 340 340 336 346 350 354 355 350 352 347 341 342 341 341 340 338 330 324 323 326 325 329 331 334 336 339 340 337 331 326 327 329 323 321 321 322
320 314 312 318 320 317 317 318 319 316 319 317 323 334 330 333 335 350 355 357 351 351 349 344 342 341 340 341 340 334 328 324 326 325 330 332 334 339 340 341 338 328 327 330 326 322 321 321 325
318 309 314 316 316 317 318 317 317 317 319 318 324 328 327 324 345 353 357 358 355 351 351 348 343 342 339 340 341 338 332 326 327 326 330 332 333 336 338 340 337 329 328 329 324 322 321 322 327
310 309 314 316 316 316 315 314 318 319 318 318 319 325 324 322 322 322 355 359 358 357 353 351 349 346 339 338 341 341 335 333 327 327 330 332 333 334 336 337 333 329 329 328 324 322 321 322 328
312 310 313 314 314 314 316 312 317 318 317 318 319 325 325 317 319 319 321 353 359 358 355 351 350 347 339 336 339 341 339 337 330 328 329 333 334 334 334 334 331 327 330 327 323 322 321 322 331
309 308 314 314 314 315 314 313 312 313 319 318 318 318 318 318 319 319 319 334 350 358 356 352 349 345 339 334 334 339 341 339 336 330 329 332 334 334 334 332 329 327 329 327 323 321 321 322 333
309 308 309 313 314 315 312 313 314 314 315 315 315 318 318 318 319 319 319 323 351 356 356 353 351 346 339 335 335 334 341 341 340 333 331 333 336 336 335 330 326 327 329 327 323 321 321 321 331
310 308 311 310 316 316 314 314 313 315 314 315 315 316 317 317 317 316 316 316 335 354 354 353 351 348 343 339 340 339 341 345 345 338 334 332 335 335 334 330 327 328 329 328 324 321 321 321 328
312 311 311 314 314 315 315 315 315 316 316 315 315 315 315 315 314 314 316 316 317 321 349 353 352 350 346 342 340 344 346 347 347 343 338 331 333 336 335 332 329 330 331 329 324 321 321 322 325
317 314 315 316 317 316 316 316 316 316 315 315 315 316 316 315 314 313 314 316 317 317 322 328 350 353 350 348 344 345 344 348 348 344 340 336 334 336 335 334 329 330 331 330 324 321 321 324 332
318 318 317 316 315 315 316 316 316 315 315 315 315 316 315 315 315 316 317 317 317 317 319 323 339 352 349 349 348 349 347 347 347 344 341 338 336 336 335 334 330 329 332 334 326 321 328 335 337
316 315 316 316 315 315 317 317 317 318 316 316 316 316 315 314 315 315 316 317 317 317 317 320 332 341 347 345 346 347 348 348 347 346 342 339 335 336 337 336 338 338 339 338 329 322 331 338 338
315 317 316 318 318 318 317 319 318 318 318 316 316 317 317 316 315 315 317 317 317 317 317 320 323 333 344 345 344 347 346 346 345 345 343 341 338 336 339 340 340 340 341 335 330 329 330 334 344
318 317 318 319 319 319 318 319 319 317 316 317 317 317 318 317 317 317 317 317 317 317 318 318 323 330 344 346 345 344 345 346 345 344 342 342 341 338 340 342 340 341 343 340 332 334 335 342 345
318 320 319 317 317 318 319 319 318 318 319 319 321 323 324 323 322 323 323 322 318 317 318 319 325 326 337 347 344 345 346 346 346 345 344 341 343 342 339 342 343 342 344 341 334 340 348 344 344
322 317 316 317 318 319 319 319 319 319 322 324 323 322 323 323 322 322 322 322 324 323 320 321 321 323 325 331 346 347 346 346 344 345 344 344 342 342 340 337 344 342 341 336 341 348 347 346 344
318 318 318 317 318 320 319 319 321 324 323 323 322 322 322 321 319 320 320 321 322 322 325 322 321 320 322 328 345 347 348 345 343 342 341 342 341 340 340 337 345 344 339 336 343 346 343 343 343
319 319 319 318 319 320 319 320 325 324 323 323 322 322 322 320 320 319 320 320 320 322 323 324 325 322 321 320 328 332 343 347 345 342 342 342 341 340 341 338 346 343 339 335 347 346 342 342 341
320 321 319 319 318 319 320 321 325 326 324 323 323 322 321 320 320 319 319 319 319 319 321 323 325 325 325 322 324 335 344 343 342 344 342 343 344 342 341 340 345 342 339 338 346 344 343 341 339
320 319 319 320 320 321 321 324 329 327 325 324 324 323 320 320 319 318 318 318 319 319 323 324 324 324 325 326 326 327 334 336 338 338 338 342 345 345 343 341 345 341 337 342 345 344 343 342 338
318 318 319 323 322 320 323 323 324 327 326 325 323 322 320 319 319 319 318 318 318 319 320 322 323 323 323 325 326 332 332 332 330 334 335 339 344 346 345 344 344 340 338 344 345 344 344 343 338
319 319 322 321 319 321 324 322 320 329 327 325 323 321 320 319 318 318 318 318 318 318 319 320 321 323 323 322 325 333 336 333 337 336 339 343 344 344 344 343 343 341 342 345 346 345 345 344 340
318 321 321 324 320 320 319 323 323 329 326 325 322 322 320 318 318 318 317 317 318 318 319 320 322 323 323 323 322 327 335 333 339 341 343 343 338 339 342 336 341 340 347 347 347 344 341 337 333
321 322 324 329 322 325 323 327 329 326 325 323 321 319 319 319 318 317 317 318 318 319 319 320 321 322 323 323 320 324 334 334 339 343 342 342 343 338 335 335 341 340 346 347 343 336 332 328 325
321 327 323 319 322 317 323 324 324 323 322 322 322 320 319 319 318 317 318 318 319 320 320 321 321 323 323 322 320 323 334 333 340 341 342 339 341 342 343 339 342 343 345 342 336 332 327 325 321
324 325 326 321 317 325 324 325 325 325 322 322 322 320 319 318 318 318 318 318 319 321 321 322 323 324 324 323 320 323 334 336 339 337 341 341 341 342 341 341 341 342 339 334 333 326 322 321 315
323 325 325 323 318 324 330 326 324 324 321 322 320 319 318 318 319 319 318 318 319 321 321 325 323 322 321 320 320 321 330 332 338 339 339 339 341 341 341 341 335 335 332 330 328 321 316 315 312
323 324 321 322 323 323 329 329 322 321 319 319 320 318 318 318 318 318 318 318 318 320 322 324 324 322 321 327 324 321 328 334 338 338 338 337 341 340 339 336 331 330 330 326 322 315 313 311 310
Wind_Speed
11 6 9 3 4 5 4 7 3 10 6 5 3 8 8 7 1 4 4 17 19 35 31 27 26 26 24 22 21 22 23 23 21 21 21 21 21 20 20 18 15 14 13 13 12 10 9 9 9
8 6 3 2 4 2 6 6 6 8 7 8 9 7 8 5 4 8 9 22 29 34 32 29 26 25 25 23 21 20 21 22 22 23 22 21 20 20 18 16 16 14 11 11 11 9 8 7 7
5 4 3 4 3 5 5 4 5 10 10 7 5 5 4 4 3 7 16 25 28 32 31 28 25 23 23 24 22 20 20 21 22 23 23 21 20 18 16 16 14 12 13 11 9 7 6 6 6
4 5 4 3 6 7 5 11 13 7 8 11 2 7 4 1 4 7 21 21 27 30 29 27 25 23 21 22 23 21 20 21 22 23 23 22 20 18 15 14 13 11 10 10 8 6 5 4 4
2 3 3 1 7 6 5 8 14 6 2 6 5 5 5 7 14 15 24 20 24 25 27 27 24 23 21 20 21 22 21 20 22 23 24 22 20 17 14 13 12 11 11 10 8 7 5 3 3
4 3 3 2 6 6 8 8 6 3 4 6 7 6 3 7 20 17 12 21 22 23 24 27 26 23 22 20 20 21 21 21 21 22 23 23 21 19 16 14 13 12 11 10 9 7 6 4 4
5 4 3 4 6 7 6 11 8 5 6 7 1 5 2 9 16 17 15 13 18 20 23 25 27 24 21 20 20 20 21 21 21 23 24 23 21 20 17 15 14 13 12 11 10 8 7 6 6
5 4 3 3 4 5 7 8 7 9 5 4 3 2 2 3 11 11 11 11 12 20 23 24 25 27 27 25 22 21 22 22 21 23 24 24 22 20 18 16 16 15 13 12 11 9 8 7 7
4 4 2 4 4 3 5 8 7 5 6 5 3 3 2 9 15 16 13 8 10 18 23 23 23 25 27 26 26 26 23 23 22 23 23 24 23 21 19 18 17 16 15 13 12 11 10 9 9
4 4 7 7 2 3 0 5 5 6 8 6 10 12 9 10 10 9 7 9 5 8 20 21 24 25 26 27 26 25 27 26 25 25 25 25 24 22 20 19 18 17 16 15 13 13 11 11 11
3 6 6 8 6 2 4 4 2 3 4 6 7 7 10 7 7 2 1 5 2 4 10 17 23 24 26 30 30 28 27 28 28 27 27 27 25 23 22 21 20 20 18 17 16 15 15 13 11
1 4 1 6 4 5 5 3 5 5 9 9 10 8 4 10 8 9 7 4 12 3 4 6 22 25 25 26 31 32 31 30 30 29 28 28 28 27 25 24 24 22 21 19 18 17 15 13 12
2 5 9 10 10 7 4 7 4 9 12 10 9 7 8 8 9 12 12 10 9 14 6 5 12 26 23 22 26 27 31 32 32 31 30 30 30 29 26 26 25 25 23 22 20 19 15 13 12
5 7 10 7 12 8 4 10 4 16 11 10 8 10 10 9 12 11 15 18 14 14 13 8 15 20 28 31 27 29 28 30 31 33 34 33 33 31 28 27 27 25 23 24 22 21 18 16 14
7 7 9 3 5 8 5 8 8 18 12 12 12 11 12 12 14 15 27 25 22 19 18 12 14 20 29 32 30 30 31 30 32 33 34 35 35 35 32 30 29 26 24 22 24 22 19 16 12
5 4 6 8 3 7 8 7 13 9 5 9 10 10 10 10 7 13 23 28 25 22 19 18 12 16 28 33 32 32 33 32 33 34 35 37 37 37 35 33 33 28 26 24 24 20 19 17 21
4 2 4 9 6 3 1 7 6 9 7 8 11 16 15 13 15 23 30 18 20 23 23 21 17 18 22 32 33 33 33 36 35 33 36 37 38 37 38 33 34 31 24 24 24 18 20 16 11
5 3 4 6 7 8 7 8 11 10 10 11 12 11 14 13 12 19 28 32 27 19 19 22 23 23 22 20 29 30 30 37 35 35 34 36 38 38 37 40 32 35 28 18 22 20 13 12 13
7 3 5 7 6 3 4 7 16 17 14 13 12 12 11 12 11 23 26 30 32 30 23 24 25 26 25 23 26 30 30 31 36 37 36 36 39 38 37 39 31 33 27 24 20 16 17 13 12
3 4 6 5 7 5 8 10 7 10 7 11 11 12 15 17 17 20 30 28 29 30 32 28 26 29 29 31 30 30 32 36 31 28 33 35 41 39 38 40 34 33 28 22 20 21 17 7 12
3 2 5 6 7 5 3 5 4 4 9 10 11 9 12 13 16 19 22 29 33 31 31 29 23 25 32 36 34 30 27 23 31 31 30 28 36 42 41 40 37 34 31 27 26 25 24 12 9
2 6 5 9 4 5 4 4 1 1 9 10 9 10 13 15 13 12 15 21 27 31 30 31 33 28 24 33 39 37 31 23 31 38 43 46 35 41 46 46 43 36 33 30 28 25 23 20 15
6 7 5 7 5 3 6 4 3 3 7 7 9 13 13 12 12 18 18 25 28 28 29 30 31 31 27 23 37 37 34 35 34 39 40 39 41 35 27 34 46 38 32 31 28 24 21 19 19
4 5 6 5 3 3 3 4 4 3 3 6 8 10 12 13 15 17 23 25 27 29 31 30 29 32 31 25 32 38 38 36 30 29 29 28 36 38 29 23 36 38 33 33 30 25 22 21 20
8 7 4 6 5 4 1 3 5 2 2 4 9 15 15 11 14 17 18 19 30 32 32 31 29 30 29 31 34 38 39 40 36 33 31 29 31 33 42 42 36 37 36 32 29 26 24 22 23
3 6 4 2 2 5 8 3 3 5 4 6 7 8 13 15 14 15 16 21 28 33 37 33 36 35 29 32 35 37 39 40 37 35 34 36 29 38 40 44 41 40 36 33 32 31 29 27 24
2 4 4 4 3 3 4 2 5 3 6 11 11 13 15 16 15 15 18 23 26 29 33 33 34 41 32 35 32 35 37 40 32 35 37 36 31 38 45 43 41 36 37 39 38 35 32 28 25
7 2 4 3 1 4 5 5 5 6 9 10 10 11 15 15 16 17 18 26 31 31 32 34 35 30 32 34 32 31 34 38 35 36 35 35 29 37 35 37 34 40 41 41 38 35 32 30 25
4 3 1 4 4 3 3 5 3 2 8 10 9 10 13 15 15 15 16 25 30 32 31 30 29 23 19 31 35 31 32 40 34 31 36 33 33 38 37 38 40 44 43 39 37 34 32 30 27
4 2 2 3 4 4 2 5 1 5 7 7 8 10 14 14 14 12 14 20 27 27 30 31 26 25 24 15 27 32 37 33 30 30 35 33 34 37 40 39 38 44 44 40 39 35 30 30 28
Wind_Direction
309 297 318 23 53 58 270 266 319 303 305 28 58 82 91 40 78 185 160 189 192 163 167 170 169 163 157 153 152 153 154 154 153 152 149 146 143 141 141 141 142 142 140 139 136 133 128 125 121
313 338 66 74 88 72 271 251 280 272 272 144 103 104 47 70 54 120 115 155 160 164 168 172 174 170 165 161 158 156 156 156 156 157 155 152 149 147 146 147 148 149 149 147 143 140 136 130 122
326 345 84 102 129 187 226 271 296 319 298 337 97 66 89 109 31 134 145 155 160 166 170 174 176 177 173 169 166 162 161 162 161 162 162 159 155 154 154 154 155 156 156 153 152 148 144 134 133
11 16 23 89 248 259 239 283 289 288 290 4 103 81 50 85 123 138 155 155 162 169 174 178 179 179 179 178 173 170 168 168 168 168 170 166 160 160 160 160 161 162 161 159 159 161 158 147 146
60 63 55 60 261 269 281 257 266 235 91 20 30 26 62 26 97 118 154 158 159 170 180 182 183 182 184 185 183 179 176 173 175 176 175 174 168 168 170 170 171 173 171 170 173 174 177 174 172
26 92 53 260 268 299 300 296 318 36 45 5 37 112 48 65 52 61 159 169 166 165 180 190 189 188 188 189 190 190 185 180 180 184 184 181 176 174 177 180 181 183 183 183 186 191 188 194 196
121 89 216 291 276 344 339 328 11 338 37 20 33 90 139 48 23 11 61 167 178 173 175 183 190 191 193 195 195 197 196 190 187 189 191 188 185 181 183 186 190 191 193 195 198 204 213 204 214
113 92 328 277 295 283 317 360 340 21 13 305 20 85 285 249 1 358 12 123 167 189 185 182 187 193 194 195 197 199 202 201 196 195 196 194 191 190 191 193 195 197 200 204 207 214 223 227 226
108 67 251 258 307 283 316 13 332 302 21 345 348 72 312 39 42 41 30 98 166 191 195 191 193 196 198 198 197 196 200 205 204 201 200 199 196 196 199 200 202 202 205 209 213 221 229 238 243
112 132 227 221 271 286 312 43 315 17 353 336 336 332 339 358 26 44 28 0 136 195 200 205 202 200 201 200 199 197 193 198 204 203 201 201 202 202 204 207 209 211 212 213 218 224 232 242 249
234 196 214 274 252 238 317 338 230 312 299 250 267 277 306 335 344 355 321 320 24 95 205 234 225 217 207 205 200 197 194 195 201 204 205 202 203 205 209 210 212 215 218 220 221 224 229 237 241
303 278 229 265 344 325 307 268 306 234 244 235 245 248 260 290 300 300 284 271 302 201 169 247 236 223 216 207 206 202 198 197 200 204 207 205 204 206 210 214 216 217 217 223 225 228 230 232 237
81 322 318 320 307 287 299 282 239 269 265 259 253 283 266 260 262 260 267 269 271 285 222 224 220 222 215 214 209 208 204 201 204 205 208 208 208 209 212 219 220 222 225 227 227 229 226 230 243
306 305 304 303 297 279 247 289 56 281 278 287 282 268 260 240 233 244 248 251 247 252 264 227 213 217 217 214 216 215 213 212 209 210 210 210 212 212 212 218 221 223 229 231 230 228 228 232 250
294 330 310 309 272 283 91 317 253 260 266 262 266 250 251 236 233 228 237 237 236 232 241 226 219 216 213 214 220 221 220 219 219 217 215 213 213 215 215 219 222 225 231 230 231 234 241 246 225
324 24 343 299 291 275 119 259 275 305 289 271 289 289 265 271 288 291 262 239 233 235 233 238 218 221 213 214 222 222 220 223 224 222 219 218 216 216 215 221 225 226 232 232 233 237 252 228 201
350 251 241 310 291 328 69 276 281 301 5 9 35 49 41 22 12 11 11 338 288 256 239 232 203 210 214 214 217 223 222 219 225 222 224 220 222 219 220 220 228 224 229 235 233 222 202 193 195
261 260 259 253 294 354 340 309 309 338 76 67 56 32 32 15 359 358 358 357 1 320 261 244 217 211 210 216 220 214 226 222 223 223 226 225 224 223 222 222 229 223 220 215 208 199 199 189 169
230 249 286 285 296 327 288 305 5 51 49 46 44 37 14 4 335 357 349 343 339 336 340 276 249 226 223 213 212 214 216 225 225 224 227 225 228 224 223 219 226 220 215 220 208 185 169 161 170
328 313 311 289 309 341 332 318 99 76 62 59 39 17 1 351 354 346 341 339 335 322 320 319 304 258 233 231 221 217 218 223 227 219 227 227 233 224 223 218 220 216 217 214 204 191 169 151 177
352 290 281 273 301 293 298 310 180 74 62 44 29 0 356 350 342 339 337 330 326 320 315 307 301 293 263 232 227 221 218 216 222 225 234 243 238 230 223 218 216 214 215 207 189 187 189 162 177
348 268 299 304 317 275 110 270 10 104 48 28 355 348 344 334 329 324 320 315 314 311 314 308 309 301 296 259 228 217 213 206 219 217 227 236 234 226 224 217 213 210 211 205 196 191 194 190 167
231 279 290 261 267 63 340 75 249 12 10 357 346 338 335 327 320 324 324 316 309 309 308 307 304 302 301 286 246 220 210 213 219 217 217 218 224 216 216 224 214 205 208 208 198 186 186 180 176
302 7 6 13 47 38 217 107 314 12 339 333 309 316 333 327 321 318 316 313 309 311 305 300 294 290 295 291 272 228 212 215 206 210 213 215 217 211 218 237 216 204 202 200 189 189 187 181 186
52 51 357 2 4 238 275 34 246 248 308 287 309 328 327 323 319 320 321 322 320 316 310 304 296 282 280 280 273 242 222 218 212 206 208 206 201 212 229 232 239 198 196 193 180 173 167 170 164
289 123 138 269 292 288 320 178 211 195 228 266 269 291 331 328 320 322 323 321 320 315 310 303 298 283 273 267 262 251 224 217 218 210 213 219 200 203 212 214 220 197 191 180 170 159 157 159 151
324 47 149 101 31 34 277 339 288 165 343 341 334 339 329 322 325 330 328 326 319 311 302 300 296 290 265 255 251 241 225 216 211 211 219 223 204 192 202 209 200 187 175 167 162 158 155 155 153
95 189 26 26 25 301 309 299 249 352 312 312 318 326 324 316 326 342 339 331 324 315 317 315 311 285 255 252 244 234 219 217 215 218 214 212 207 187 181 186 187 171 166 163 160 154 154 150 144
16 7 29 127 138 195 286 260 183 293 294 313 307 319 317 319 328 339 330 327 320 317 323 329 332 335 265 256 254 231 218 221 214 211 217 213 205 186 182 183 169 162 159 157 155 153 151 144 135
156 252 174 126 249 231 213 271 282 266 298 305 314 304 311 321 321 328 330 332 328 326 328 328 332 320 328 332 254 235 215 212 206 208 216 208 195 183 175 170 158 157 160 158 158 150 148 140 130